,,,PA_Meas_PMT16A,,PR_Meas_QMR101_102,,RH_Meas_QMH101,,SR_Meas_QMS101,,TA_Meas_QMH101,,GenWind,,GenWind,
date,time,status,PA,status,PR,status,RH,status,SR,status,TA,status,DirAvg,status,SpdAvg,
2009-11-07, 00:00:04,VALID,1002.34,VALID,0,VALID,94.9338,VALID,0,VALID,24.015,VALID,353,VALID,0.610156,
2009-11-07, 00:01:04,VALID,1002.35,VALID,0,VALID,94.9185,VALID,0,VALID,23.9548,VALID,353,VALID,0.503906,
2009-11-07, 00:02:04,VALID,1002.31,VALID,0,VALID,94.9033,VALID,0,VALID,23.9973,VALID,353,VALID,0.375,
2009-11-07, 00:03:04,VALID,1002.33,VALID,0,VALID,94.9109,VALID,0,VALID,23.9566,VALID,353,VALID,0.471875,
2009-11-07, 00:04:04,VALID,1002.31,VALID,0,VALID,94.8956,VALID,0,VALID,23.9371,VALID,353,VALID,0.342187,
2009-11-07, 00:05:04,VALID,1002.28,VALID,0,VALID,94.9033,VALID,0,VALID,23.9371,VALID,353,VALID,0.361719,
2009-11-07, 00:06:04,VALID,1002.27,VALID,0,VALID,94.9185,VALID,0,VALID,23.9371,VALID,353,VALID,0.4,
2009-11-07, 00:07:04,VALID,1002.27,VALID,0,VALID,94.9414,VALID,0,VALID,23.9353,VALID,353,VALID,0.303516,
2009-11-07, 00:08:04,VALID,1002.26,VALID,0,VALID,94.9567,VALID,0,VALID,23.9566,VALID,353,VALID,0.396484,
2009-11-07, 00:09:04,VALID,1002.24,VALID,0,VALID,94.9643,VALID,0,VALID,23.9371,VALID,353,VALID,0.375,
2009-11-07, 00:10:04,VALID,1002.23,VALID,0,VALID,94.9643,VALID,0,VALID,23.9371,VALID,353,VALID,0.369531,
2009-11-07, 00:11:04,VALID,1002.23,VALID,0,VALID,94.9872,VALID,0,VALID,23.9548,VALID,353,VALID,0.483203,
2009-11-07, 00:12:04,VALID,1002.25,VALID,0,VALID,94.9872,VALID,0,VALID,23.9779,VALID,353,VALID,0.303125,
2009-11-07, 00:13:04,VALID,1002.24,VALID,0,VALID,95.0177,VALID,0,VALID,23.9761,VALID,353,VALID,0.313672,
2009-11-07, 00:14:04,VALID,1002.19,VALID,0,VALID,95.0177,VALID,0,VALID,23.9566,VALID,353,VALID,0.297656,
2009-11-07, 00:15:04,VALID,1002.2,VALID,0,VALID,95.0101,VALID,0,VALID,23.9371,VALID,353,VALID,0.211328,
2009-11-07, 00:16:04,VALID,1002.19,VALID,0,VALID,95.033,VALID,0,VALID,23.9177,VALID,353,VALID,0,
2009-11-07, 00:17:04,VALID,1002.18,VALID,0,VALID,95.0177,VALID,0,VALID,23.8964,VALID,353,VALID,0.106641,
2009-11-07, 00:18:04,VALID,1002.16,VALID,0,VALID,95.0558,VALID,0,VALID,23.9353,VALID,353,VALID,0,
2009-11-07, 00:19:04,VALID,1002.17,VALID,0,VALID,95.0711,VALID,0,VALID,23.9353,VALID,353,VALID,0.0128906,
2009-11-07, 00:20:04,VALID,1002.18,VALID,0,VALID,95.0635,VALID,0,VALID,23.9566,VALID,353,VALID,0.383203,
2009-11-07, 00:21:04,VALID,1002.2,VALID,0,VALID,95.0787,VALID,0,VALID,23.9371,VALID,353,VALID,0.234375,
2009-11-07, 00:22:04,VALID,1002.19,VALID,0,VALID,95.0711,VALID,0,VALID,23.9177,VALID,353,VALID,0,
2009-11-07, 00:23:04,VALID,1002.24,VALID,0,VALID,95.0558,VALID,0,VALID,23.8593,VALID,353,VALID,0.200781,
2009-11-07, 00:24:04,VALID,1002.21,VALID,0,VALID,95.1016,VALID,0,VALID,23.9761,VALID,352,VALID,0.559766,
2009-11-07, 00:25:04,VALID,1002.22,VALID,0,VALID,95.1474,VALID,0,VALID,24.0345,VALID,352,VALID,0.463281,
2009-11-07, 00:26:04,VALID,1002.21,VALID,0,VALID,95.2161,VALID,0,VALID,24.1105,VALID,352,VALID,0.437891,
2009-11-07, 00:27:04,VALID,1002.2,VALID,0,VALID,95.2313,VALID,0,VALID,24.1513,VALID,352,VALID,0.439453,
2009-11-07, 00:28:04,VALID,1002.17,VALID,0,VALID,95.2313,VALID,0,VALID,24.1707,VALID,352,VALID,0.376563,
2009-11-07, 00:29:04,VALID,1002.16,VALID,0,VALID,95.2389,VALID,0.100563,VALID,24.1884,VALID,354,VALID,0.564453,
2009-11-07, 00:30:04,VALID,1002.14,VALID,0,VALID,95.2618,VALID,0,VALID,24.2273,VALID,354,VALID,0.606641,
2009-11-07, 00:31:04,VALID,1002.13,VALID,0,VALID,95.2618,VALID,0,VALID,24.2504,VALID,354,VALID,0.542578,
2009-11-07, 00:32:04,VALID,1002.1,VALID,0,VALID,95.2771,VALID,0,VALID,24.1902,VALID,354,VALID,0.4875,
2009-11-07, 00:33:04,VALID,1002.1,VALID,0,VALID,95.2389,VALID,0,VALID,24.1902,VALID,329,VALID,0.462109,
2009-11-07, 00:34:04,VALID,1002.09,VALID,0,VALID,95.2313,VALID,0,VALID,24.091,VALID,341,VALID,0.451953,
2009-11-07, 00:35:04,VALID,1002.1,VALID,0,VALID,95.2084,VALID,0,VALID,24.0345,VALID,341,VALID,0.444141,
2009-11-07, 00:36:04,VALID,1002.09,VALID,0,VALID,95.1932,VALID,0,VALID,23.9548,VALID,341,VALID,0.679688,
2009-11-07, 00:37:04,VALID,1002.13,VALID,0,VALID,95.1474,VALID,0,VALID,23.9584,VALID,342,VALID,0.507031,
2009-11-07, 00:38:04,VALID,1002.18,VALID,0,VALID,95.1398,VALID,0,VALID,23.8982,VALID,342,VALID,0.447266,
2009-11-07, 00:39:04,VALID,1002.21,VALID,0,VALID,95.1474,VALID,0,VALID,23.8982,VALID,342,VALID,0.382813,
2009-11-07, 00:40:04,VALID,1002.2,VALID,0,VALID,95.155,VALID,0,VALID,23.8575,VALID,342,VALID,0.285156,
2009-11-07, 00:41:04,VALID,1002.19,VALID,0,VALID,95.1245,VALID,0,VALID,23.8982,VALID,342,VALID,0.228906,
2009-11-07, 00:42:04,VALID,1002.19,VALID,0,VALID,95.1474,VALID,0,VALID,23.8982,VALID,342,VALID,0.0972656,
2009-11-07, 00:43:04,VALID,1002.2,VALID,0,VALID,95.1703,VALID,0,VALID,23.8769,VALID,342,VALID,0.138672,
2009-11-07, 00:44:04,VALID,1002.16,VALID,0,VALID,95.155,VALID,0,VALID,23.9177,VALID,342,VALID,0,
2009-11-07, 00:45:04,VALID,1002.15,VALID,0,VALID,95.1779,VALID,0,VALID,23.9761,VALID,342,VALID,0,
2009-11-07, 00:46:04,VALID,1002.15,VALID,0,VALID,95.1855,VALID,0,VALID,24.015,VALID,342,VALID,0,
2009-11-07, 00:47:04,VALID,1002.12,VALID,0,VALID,95.2084,VALID,0,VALID,24.0345,VALID,342,VALID,0,
2009-11-07, 00:48:04,VALID,1002.15,VALID,0,VALID,95.2313,VALID,0,VALID,24.0557,VALID,342,VALID,0,
2009-11-07, 00:49:04,VALID,1002.14,VALID,0,VALID,95.2084,VALID,0,VALID,24.015,VALID,342,VALID,0,
2009-11-07, 00:50:04,VALID,1002.16,VALID,0,VALID,95.2161,VALID,0,VALID,23.9566,VALID,342,VALID,0,
2009-11-07, 00:51:04,VALID,1002.18,VALID,0,VALID,95.2313,VALID,0,VALID,23.9371,VALID,342,VALID,0,
2009-11-07, 00:52:04,VALID,1002.17,VALID,0,VALID,95.2161,VALID,0,VALID,23.9371,VALID,342,VALID,0,
2009-11-07, 00:53:04,VALID,1002.19,VALID,0,VALID,95.2161,VALID,0,VALID,23.9389,VALID,342,VALID,0,
2009-11-07, 00:54:04,VALID,1002.15,VALID,0,VALID,95.2084,VALID,0,VALID,23.9371,VALID,342,VALID,0,
2009-11-07, 00:55:04,VALID,1002.14,VALID,0,VALID,95.2161,VALID,0,VALID,23.9566,VALID,342,VALID,0,
2009-11-07, 00:56:04,VALID,1002.1,VALID,0,VALID,95.2161,VALID,0,VALID,23.9566,VALID,342,VALID,0.00820312,
2009-11-07, 00:57:04,VALID,1002.13,VALID,0,VALID,95.2389,VALID,0,VALID,23.9566,VALID,342,VALID,0.0878906,
2009-11-07, 00:58:04,VALID,1002.12,VALID,0,VALID,95.2313,VALID,0,VALID,23.9742,VALID,342,VALID,0.232812,
2009-11-07, 00:59:04,VALID,1002.11,VALID,0,VALID,95.2313,VALID,0,VALID,23.9353,VALID,342,VALID,0.117188,
2009-11-07, 01:00:04,VALID,1002.11,VALID,0,VALID,95.2389,VALID,0.100563,VALID,23.9548,VALID,342,VALID,0,
2009-11-07, 01:01:04,VALID,1002.1,VALID,0,VALID,95.2618,VALID,0.100563,VALID,23.9548,VALID,342,VALID,0.0503906,
2009-11-07, 01:02:04,VALID,1002.09,VALID,0,VALID,95.2542,VALID,0.100563,VALID,23.9353,VALID,342,VALID,0.00078125,
2009-11-07, 01:03:04,VALID,1002.08,VALID,0,VALID,95.2618,VALID,0.100563,VALID,23.8964,VALID,342,VALID,0.271484,
2009-11-07, 01:04:04,VALID,1002.05,VALID,0,VALID,95.2466,VALID,0,VALID,23.8575,VALID,342,VALID,0.299219,
2009-11-07, 01:05:04,VALID,1002.06,VALID,0,VALID,95.2466,VALID,0,VALID,23.8787,VALID,342,VALID,0.390234,
2009-11-07, 01:06:04,VALID,1002.03,VALID,0,VALID,95.2466,VALID,0,VALID,23.8167,VALID,342,VALID,0.438281,
2009-11-07, 01:07:04,VALID,1002.02,VALID,0,VALID,95.2389,VALID,0.100563,VALID,23.7796,VALID,342,VALID,0.420703,
2009-11-07, 01:08:04,VALID,1001.97,VALID,0,VALID,95.2313,VALID,0,VALID,23.838,VALID,342,VALID,0.341797,
2009-11-07, 01:09:04,VALID,1001.97,VALID,0,VALID,95.2542,VALID,0,VALID,23.8769,VALID,342,VALID,0.285156,
2009-11-07, 01:10:04,VALID,1001.97,VALID,0,VALID,95.3076,VALID,0,VALID,23.914,VALID,342,VALID,0.299219,
2009-11-07, 01:11:04,VALID,1001.96,VALID,0,VALID,95.3,VALID,0,VALID,23.9742,VALID,342,VALID,0.319531,
2009-11-07, 01:12:04,VALID,1001.96,VALID,0,VALID,95.3152,VALID,0.100563,VALID,23.9937,VALID,342,VALID,0.2625,
2009-11-07, 01:13:04,VALID,1001.94,VALID,0,VALID,95.3229,VALID,0,VALID,23.9159,VALID,342,VALID,0.325391,
2009-11-07, 01:14:04,VALID,1001.92,VALID,0,VALID,95.3076,VALID,0,VALID,23.8787,VALID,342,VALID,0.469141,
2009-11-07, 01:15:05,VALID,1001.92,VALID,0,VALID,95.2847,VALID,0,VALID,23.8203,VALID,342,VALID,0.672656,
2009-11-07, 01:16:05,VALID,1001.87,VALID,0,VALID,95.2847,VALID,0,VALID,23.8416,VALID,343,VALID,0.739844,
2009-11-07, 01:17:05,VALID,1001.85,VALID,0,VALID,95.2923,VALID,0,VALID,23.7814,VALID,344,VALID,0.632422,
2009-11-07, 01:18:05,VALID,1001.82,VALID,0,VALID,95.2771,VALID,0,VALID,23.7619,VALID,344,VALID,0.563281,
2009-11-07, 01:19:05,VALID,1001.82,VALID,0,VALID,95.2618,VALID,0,VALID,23.7619,VALID,344,VALID,0.485156,
2009-11-07, 01:20:05,VALID,1001.78,VALID,0,VALID,95.2771,VALID,0,VALID,23.7425,VALID,344,VALID,0.358984,
2009-11-07, 01:21:05,VALID,1001.74,VALID,0,VALID,95.3,VALID,0,VALID,23.8009,VALID,344,VALID,0.259766,
2009-11-07, 01:22:05,VALID,1001.68,VALID,0,VALID,95.3076,VALID,0,VALID,23.8185,VALID,344,VALID,0,
2009-11-07, 01:23:05,VALID,1001.69,VALID,0,VALID,95.3305,VALID,0,VALID,23.838,VALID,344,VALID,0,
2009-11-07, 01:24:05,VALID,1001.67,VALID,0,VALID,95.3229,VALID,0,VALID,23.8593,VALID,344,VALID,0,
2009-11-07, 01:25:05,VALID,1001.67,VALID,0,VALID,95.3534,VALID,0,VALID,23.8787,VALID,344,VALID,0,
2009-11-07, 01:26:05,VALID,1001.65,VALID,0,VALID,95.361,VALID,0,VALID,23.8593,VALID,344,VALID,0.311719,
2009-11-07, 01:27:05,VALID,1001.63,VALID,0,VALID,95.3381,VALID,0,VALID,23.8203,VALID,348,VALID,0.551562,
2009-11-07, 01:28:05,VALID,1001.64,VALID,0,VALID,95.3229,VALID,0,VALID,23.7601,VALID,354,VALID,0.535937,
2009-11-07, 01:29:05,VALID,1001.61,VALID,0,VALID,95.3229,VALID,0,VALID,23.7407,VALID,354,VALID,0.071875,
2009-11-07, 01:30:05,VALID,1001.6,VALID,0,VALID,95.3152,VALID,0,VALID,23.723,VALID,354,VALID,0,
2009-11-07, 01:31:05,VALID,1001.58,VALID,0,VALID,95.3152,VALID,0,VALID,23.7248,VALID,354,VALID,0,
2009-11-07, 01:32:05,VALID,1001.56,VALID,0,VALID,95.3229,VALID,0,VALID,23.7425,VALID,354,VALID,0,
2009-11-07, 01:33:05,VALID,1001.55,VALID,0,VALID,95.3152,VALID,0,VALID,23.7035,VALID,354,VALID,0,
2009-11-07, 01:34:05,VALID,1001.55,VALID,0,VALID,95.3229,VALID,0,VALID,23.6823,VALID,354,VALID,0.322656,
2009-11-07, 01:35:05,VALID,1001.54,VALID,0,VALID,95.3076,VALID,0,VALID,23.7443,VALID,354,VALID,0.2625,
2009-11-07, 01:36:05,VALID,1001.51,VALID,0,VALID,95.3534,VALID,0,VALID,23.7035,VALID,354,VALID,0,
2009-11-07, 01:37:05,VALID,1001.5,VALID,0,VALID,95.3229,VALID,0,VALID,23.7017,VALID,354,VALID,0,
2009-11-07, 01:38:05,VALID,1001.46,VALID,0,VALID,95.3381,VALID,0,VALID,23.7425,VALID,354,VALID,0,
2009-11-07, 01:39:05,VALID,1001.46,VALID,0,VALID,95.3534,VALID,0,VALID,23.7248,VALID,354,VALID,0,
2009-11-07, 01:40:05,VALID,1001.39,VALID,0,VALID,95.3534,VALID,0,VALID,23.7425,VALID,354,VALID,0,
2009-11-07, 01:41:05,VALID,1001.36,VALID,0,VALID,95.361,VALID,0,VALID,23.8027,VALID,354,VALID,0,
2009-11-07, 01:42:05,VALID,1001.38,VALID,0,VALID,95.3763,VALID,0,VALID,23.8009,VALID,354,VALID,0,
2009-11-07, 01:43:05,VALID,1001.33,VALID,0,VALID,95.3839,VALID,0,VALID,23.8221,VALID,354,VALID,0,
2009-11-07, 01:44:05,VALID,1001.29,VALID,0,VALID,95.3915,VALID,0,VALID,23.7407,VALID,354,VALID,0,
2009-11-07, 01:45:05,VALID,1001.28,VALID,0,VALID,95.3686,VALID,0,VALID,23.7212,VALID,354,VALID,0.657031,
2009-11-07, 01:46:05,VALID,1001.27,VALID,0,VALID,95.3763,VALID,0,VALID,23.7017,VALID,354,VALID,0.642578,
2009-11-07, 01:47:05,VALID,1001.27,VALID,0,VALID,95.3686,VALID,0,VALID,23.6841,VALID,354,VALID,0.669141,
2009-11-07, 01:48:05,VALID,1001.25,VALID,0,VALID,95.3763,VALID,0,VALID,23.6628,VALID,354,VALID,0.699219,
2009-11-07, 01:49:05,VALID,1001.27,VALID,0,VALID,95.361,VALID,0,VALID,23.6434,VALID,354,VALID,0.652734,
2009-11-07, 01:50:05,VALID,1001.26,VALID,0,VALID,95.3839,VALID,0,VALID,23.7053,VALID,354,VALID,0.490234,
2009-11-07, 01:51:05,VALID,1001.26,VALID,0,VALID,95.3915,VALID,0,VALID,23.6646,VALID,354,VALID,0.527344,
2009-11-07, 01:52:05,VALID,1001.25,VALID,0,VALID,95.3839,VALID,0,VALID,23.6664,VALID,354,VALID,0.433594,
2009-11-07, 01:53:05,VALID,1001.25,VALID,0,VALID,95.3839,VALID,0,VALID,23.6257,VALID,354,VALID,0.294531,
2009-11-07, 01:54:05,VALID,1001.24,VALID,0,VALID,95.3991,VALID,0,VALID,23.6452,VALID,354,VALID,0.421484,
2009-11-07, 01:55:05,VALID,1001.23,VALID,0,VALID,95.3839,VALID,0,VALID,23.6257,VALID,354,VALID,0.326953,
2009-11-07, 01:56:05,VALID,1001.21,VALID,0,VALID,95.3839,VALID,0,VALID,23.6452,VALID,354,VALID,0.409766,
2009-11-07, 01:57:05,VALID,1001.22,VALID,0,VALID,95.3763,VALID,0,VALID,23.6257,VALID,354,VALID,0.313281,
2009-11-07, 01:58:05,VALID,1001.22,VALID,0,VALID,95.4068,VALID,0,VALID,23.6044,VALID,354,VALID,0.482422,
2009-11-07, 01:59:05,VALID,1001.2,VALID,0,VALID,95.4144,VALID,0,VALID,23.6452,VALID,354,VALID,0.09375,
2009-11-07, 02:00:05,VALID,1001.2,VALID,0,VALID,95.4068,VALID,0,VALID,23.6044,VALID,354,VALID,0.0152344,
2009-11-07, 02:01:05,VALID,1001.17,VALID,0,VALID,95.3991,VALID,0,VALID,23.6062,VALID,354,VALID,0.160156,
2009-11-07, 02:02:05,VALID,1001.15,VALID,0,VALID,95.4144,VALID,0,VALID,23.6062,VALID,354,VALID,0.194141,
2009-11-07, 02:03:05,VALID,1001.12,VALID,0,VALID,95.3915,VALID,0,VALID,23.6062,VALID,356,VALID,0.484766,
2009-11-07, 02:04:05,VALID,1001.08,VALID,0,VALID,95.3991,VALID,0,VALID,23.585,VALID,356,VALID,0.3,
2009-11-07, 02:05:05,VALID,1001.1,VALID,0,VALID,95.4144,VALID,0,VALID,23.585,VALID,356,VALID,0.494531,
2009-11-07, 02:06:05,VALID,1001.07,VALID,0,VALID,95.422,VALID,0,VALID,23.6044,VALID,356,VALID,0.336719,
2009-11-07, 02:07:05,VALID,1001.07,VALID,0,VALID,95.3991,VALID,0.100563,VALID,23.6044,VALID,356,VALID,0,
2009-11-07, 02:08:05,VALID,1001.06,VALID,0,VALID,95.4068,VALID,0,VALID,23.5655,VALID,356,VALID,0,
2009-11-07, 02:09:05,VALID,1001.04,VALID,0,VALID,95.3991,VALID,0,VALID,23.546,VALID,356,VALID,0,
2009-11-07, 02:10:05,VALID,1001,VALID,0,VALID,95.3991,VALID,0,VALID,23.546,VALID,356,VALID,0,
2009-11-07, 02:11:05,VALID,1000.96,VALID,0,VALID,95.422,VALID,0,VALID,23.5089,VALID,356,VALID,0,
2009-11-07, 02:12:05,VALID,1000.93,VALID,0,VALID,95.422,VALID,0,VALID,23.5673,VALID,356,VALID,0,
2009-11-07, 02:13:05,VALID,1000.9,VALID,0,VALID,95.4602,VALID,0,VALID,23.6628,VALID,356,VALID,0,
2009-11-07, 02:14:05,VALID,1000.86,VALID,0,VALID,95.4907,VALID,0,VALID,23.7796,VALID,356,VALID,0,
2009-11-07, 02:15:05,VALID,1000.82,VALID,0,VALID,95.4983,VALID,0,VALID,23.9566,VALID,356,VALID,0,
2009-11-07, 02:16:05,VALID,1000.84,VALID,0,VALID,95.506,VALID,0,VALID,23.9742,VALID,356,VALID,0,
2009-11-07, 02:17:05,VALID,1000.82,VALID,0,VALID,95.5288,VALID,0,VALID,23.9761,VALID,356,VALID,0,
2009-11-07, 02:18:05,VALID,1000.81,VALID,0,VALID,95.5212,VALID,0,VALID,23.8787,VALID,356,VALID,0,
2009-11-07, 02:19:05,VALID,1000.84,VALID,0,VALID,95.5288,VALID,0,VALID,23.8203,VALID,356,VALID,0,
2009-11-07, 02:20:05,VALID,1000.81,VALID,0,VALID,95.4983,VALID,0,VALID,23.7425,VALID,356,VALID,0,
2009-11-07, 02:21:05,VALID,1000.82,VALID,0,VALID,95.506,VALID,0,VALID,23.7035,VALID,356,VALID,0,
2009-11-07, 02:22:05,VALID,1000.82,VALID,0,VALID,95.4907,VALID,0,VALID,23.6239,VALID,356,VALID,0,
2009-11-07, 02:23:05,VALID,1000.81,VALID,0,VALID,95.4678,VALID,0,VALID,23.6062,VALID,356,VALID,0,
2009-11-07, 02:24:05,VALID,1000.83,VALID,0,VALID,95.4831,VALID,0,VALID,23.6044,VALID,356,VALID,0,
2009-11-07, 02:25:05,VALID,1000.84,VALID,0,VALID,95.4754,VALID,0,VALID,23.6646,VALID,356,VALID,0,
2009-11-07, 02:26:05,VALID,1000.83,VALID,0,VALID,95.4983,VALID,0,VALID,23.723,VALID,356,VALID,0,
2009-11-07, 02:27:05,VALID,1000.87,VALID,0,VALID,95.5136,VALID,0,VALID,23.7814,VALID,356,VALID,0,
2009-11-07, 02:28:05,VALID,1000.83,VALID,0,VALID,95.5136,VALID,0,VALID,23.7601,VALID,356,VALID,0,
2009-11-07, 02:29:05,VALID,1000.85,VALID,0,VALID,95.5288,VALID,0,VALID,23.7601,VALID,356,VALID,0,
2009-11-07, 02:30:05,VALID,1000.86,VALID,0,VALID,95.5365,VALID,0,VALID,23.8027,VALID,356,VALID,0,
2009-11-07, 02:31:05,VALID,1000.86,VALID,0,VALID,95.5212,VALID,0,VALID,23.7407,VALID,356,VALID,0,
2009-11-07, 02:32:05,VALID,1000.89,VALID,0,VALID,95.5441,VALID,0,VALID,23.723,VALID,356,VALID,0,
2009-11-07, 02:33:05,VALID,1000.85,VALID,0,VALID,95.5136,VALID,0,VALID,23.6823,VALID,356,VALID,0,
2009-11-07, 02:34:05,VALID,1000.88,VALID,0,VALID,95.506,VALID,0,VALID,23.6239,VALID,356,VALID,0,
2009-11-07, 02:35:05,VALID,1000.84,VALID,0,VALID,95.4983,VALID,0,VALID,23.5868,VALID,356,VALID,0,
2009-11-07, 02:36:05,VALID,1000.83,VALID,0,VALID,95.4831,VALID,0,VALID,23.546,VALID,356,VALID,0,
2009-11-07, 02:37:05,VALID,1000.8,VALID,0,VALID,95.4907,VALID,0,VALID,23.5266,VALID,356,VALID,0,
2009-11-07, 02:38:05,VALID,1000.82,VALID,0,VALID,95.4831,VALID,0,VALID,23.5868,VALID,356,VALID,0,
2009-11-07, 02:39:05,VALID,1000.79,VALID,0,VALID,95.4907,VALID,0,VALID,23.5868,VALID,356,VALID,0,
2009-11-07, 02:40:05,VALID,1000.78,VALID,0,VALID,95.4983,VALID,0,VALID,23.6044,VALID,356,VALID,0,
2009-11-07, 02:41:05,VALID,1000.77,VALID,0,VALID,95.506,VALID,0,VALID,23.6044,VALID,356,VALID,0,
2009-11-07, 02:42:05,VALID,1000.71,VALID,0,VALID,95.506,VALID,0,VALID,23.6257,VALID,356,VALID,0,
2009-11-07, 02:43:05,VALID,1000.74,VALID,0,VALID,95.4907,VALID,0,VALID,23.6062,VALID,356,VALID,0,
2009-11-07, 02:44:05,VALID,1000.72,VALID,0,VALID,95.4983,VALID,0,VALID,23.6257,VALID,356,VALID,0,
2009-11-07, 02:45:05,VALID,1000.73,VALID,0,VALID,95.5212,VALID,0,VALID,23.7035,VALID,356,VALID,0,
2009-11-07, 02:46:05,VALID,1000.72,VALID,0,VALID,95.5365,VALID,0,VALID,23.7212,VALID,356,VALID,0,
2009-11-07, 02:47:05,VALID,1000.75,VALID,0,VALID,95.5441,VALID,0,VALID,23.7814,VALID,356,VALID,0,
2009-11-07, 02:48:05,VALID,1000.74,VALID,0,VALID,95.5517,VALID,0,VALID,23.8185,VALID,356,VALID,0,
2009-11-07, 02:49:05,VALID,1000.75,VALID,0,VALID,95.5441,VALID,0,VALID,23.8185,VALID,356,VALID,0,
2009-11-07, 02:50:05,VALID,1000.7,VALID,0,VALID,95.5594,VALID,0,VALID,23.7601,VALID,356,VALID,0,
2009-11-07, 02:51:05,VALID,1000.71,VALID,0,VALID,95.5517,VALID,0,VALID,23.7212,VALID,356,VALID,0,
2009-11-07, 02:52:05,VALID,1000.67,VALID,0,VALID,95.5365,VALID,0,VALID,23.7017,VALID,356,VALID,0,
2009-11-07, 02:53:05,VALID,1000.69,VALID,0,VALID,95.5365,VALID,0,VALID,23.7017,VALID,356,VALID,0,
2009-11-07, 02:54:05,VALID,1000.69,VALID,0,VALID,95.5517,VALID,0.100563,VALID,23.723,VALID,356,VALID,0,
2009-11-07, 02:55:05,VALID,1000.68,VALID,0,VALID,95.5365,VALID,0,VALID,23.7212,VALID,356,VALID,0,
2009-11-07, 02:56:05,VALID,1000.68,VALID,0,VALID,95.5594,VALID,0,VALID,23.7601,VALID,356,VALID,0,
2009-11-07, 02:57:05,VALID,1000.72,VALID,0,VALID,95.5746,VALID,0,VALID,23.8009,VALID,356,VALID,0,
2009-11-07, 02:58:05,VALID,1000.72,VALID,0,VALID,95.5746,VALID,0,VALID,23.8009,VALID,356,VALID,0,
2009-11-07, 02:59:05,VALID,1000.73,VALID,0,VALID,95.5822,VALID,0,VALID,23.7601,VALID,356,VALID,0,
2009-11-07, 03:00:05,VALID,1000.72,VALID,0,VALID,95.567,VALID,0,VALID,23.6823,VALID,356,VALID,0,
2009-11-07, 03:01:05,VALID,1000.72,VALID,0,VALID,95.5594,VALID,0,VALID,23.6239,VALID,356,VALID,0,
2009-11-07, 03:02:05,VALID,1000.69,VALID,0,VALID,95.5365,VALID,0,VALID,23.6062,VALID,356,VALID,0,
2009-11-07, 03:03:05,VALID,1000.69,VALID,0,VALID,95.5594,VALID,0,VALID,23.546,VALID,356,VALID,0,
2009-11-07, 03:04:05,VALID,1000.66,VALID,0,VALID,95.5441,VALID,0.100563,VALID,23.546,VALID,356,VALID,0,
2009-11-07, 03:05:05,VALID,1000.63,VALID,0,VALID,95.5517,VALID,0,VALID,23.5266,VALID,356,VALID,0,
2009-11-07, 03:06:05,VALID,1000.61,VALID,0,VALID,95.5594,VALID,0,VALID,23.5478,VALID,356,VALID,0,
2009-11-07, 03:07:05,VALID,1000.59,VALID,0,VALID,95.5594,VALID,0,VALID,23.585,VALID,356,VALID,0.509766,
2009-11-07, 03:08:05,VALID,1000.58,VALID,0,VALID,95.5594,VALID,0,VALID,23.6452,VALID,356,VALID,0.678125,
2009-11-07, 03:09:05,VALID,1000.54,VALID,0,VALID,95.567,VALID,0,VALID,23.6646,VALID,355,VALID,0.50625,
2009-11-07, 03:10:05,VALID,1000.52,VALID,0,VALID,95.5822,VALID,0,VALID,23.6257,VALID,355,VALID,0.658984,
2009-11-07, 03:11:05,VALID,1000.5,VALID,0,VALID,95.5746,VALID,0,VALID,23.5655,VALID,355,VALID,0.665625,
2009-11-07, 03:12:05,VALID,1000.45,VALID,0,VALID,95.5746,VALID,0,VALID,23.5071,VALID,355,VALID,0.708984,
2009-11-07, 03:13:05,VALID,1000.45,VALID,0,VALID,95.5746,VALID,0,VALID,23.4682,VALID,355,VALID,0.713281,
2009-11-07, 03:14:05,VALID,1000.43,VALID,0,VALID,95.5746,VALID,0,VALID,23.4487,VALID,355,VALID,0.561719,
2009-11-07, 03:15:05,VALID,1000.43,VALID,0,VALID,95.5594,VALID,0,VALID,23.4487,VALID,356,VALID,0.49375,
2009-11-07, 03:16:05,VALID,1000.41,VALID,0,VALID,95.5594,VALID,0,VALID,23.4682,VALID,356,VALID,0.358984,
2009-11-07, 03:17:05,VALID,1000.43,VALID,0,VALID,95.5899,VALID,0,VALID,23.4877,VALID,356,VALID,0.0421875,
2009-11-07, 03:18:05,VALID,1000.45,VALID,0,VALID,95.5822,VALID,0,VALID,23.5071,VALID,356,VALID,0.0121094,
2009-11-07, 03:19:05,VALID,1000.46,VALID,0,VALID,95.5746,VALID,0,VALID,23.5071,VALID,356,VALID,0.503906,
2009-11-07, 03:20:05,VALID,1000.45,VALID,0,VALID,95.5746,VALID,0,VALID,23.5478,VALID,355,VALID,0.437109,
2009-11-07, 03:21:05,VALID,1000.5,VALID,0,VALID,95.6204,VALID,0,VALID,23.5071,VALID,355,VALID,0.555078,
2009-11-07, 03:22:05,VALID,1000.5,VALID,0,VALID,95.5822,VALID,0,VALID,23.4487,VALID,355,VALID,0.486719,
2009-11-07, 03:23:05,VALID,1000.51,VALID,0,VALID,95.5822,VALID,0,VALID,23.4487,VALID,355,VALID,0.382813,
2009-11-07, 03:24:05,VALID,1000.52,VALID,0,VALID,95.5746,VALID,0.100563,VALID,23.408,VALID,355,VALID,0.391406,
2009-11-07, 03:25:05,VALID,1000.52,VALID,0,VALID,95.5899,VALID,0,VALID,23.4311,VALID,355,VALID,0.446484,
2009-11-07, 03:26:05,VALID,1000.49,VALID,0,VALID,95.5899,VALID,0,VALID,23.4098,VALID,354,VALID,0.394531,
2009-11-07, 03:27:05,VALID,1000.52,VALID,0,VALID,95.5899,VALID,0,VALID,23.4487,VALID,354,VALID,0.50625,
2009-11-07, 03:28:05,VALID,1000.5,VALID,0,VALID,95.6051,VALID,0,VALID,23.4098,VALID,354,VALID,0.466016,
2009-11-07, 03:29:05,VALID,1000.52,VALID,0,VALID,95.5975,VALID,0,VALID,23.3497,VALID,354,VALID,0.458203,
2009-11-07, 03:30:05,VALID,1000.55,VALID,0,VALID,95.5822,VALID,0,VALID,23.332,VALID,354,VALID,0.546875,
2009-11-07, 03:31:05,VALID,1000.55,VALID,0,VALID,95.5975,VALID,0.100563,VALID,23.2931,VALID,354,VALID,0.546094,
2009-11-07, 03:32:05,VALID,1000.56,VALID,0,VALID,95.5975,VALID,0,VALID,23.3125,VALID,354,VALID,0.439453,
2009-11-07, 03:33:05,VALID,1000.58,VALID,0,VALID,95.5899,VALID,0,VALID,23.2931,VALID,354,VALID,0.482422,
2009-11-07, 03:34:05,VALID,1000.59,VALID,0,VALID,95.6051,VALID,0.100563,VALID,23.2736,VALID,354,VALID,0.527734,
2009-11-07, 03:35:05,VALID,1000.57,VALID,0,VALID,95.6051,VALID,0,VALID,23.2754,VALID,354,VALID,0.558984,
2009-11-07, 03:36:05,VALID,1000.56,VALID,0,VALID,95.5975,VALID,0.100563,VALID,23.2329,VALID,354,VALID,0.535937,
2009-11-07, 03:37:05,VALID,1000.56,VALID,0,VALID,95.5975,VALID,0,VALID,23.2541,VALID,354,VALID,0.652734,
2009-11-07, 03:38:05,VALID,1000.54,VALID,0,VALID,95.5975,VALID,0.100563,VALID,23.2329,VALID,354,VALID,0.560156,
2009-11-07, 03:39:05,VALID,1000.52,VALID,0,VALID,95.5975,VALID,0,VALID,23.2541,VALID,354,VALID,0.448047,
2009-11-07, 03:40:05,VALID,1000.51,VALID,0,VALID,95.5975,VALID,0,VALID,23.2347,VALID,354,VALID,0.423828,
2009-11-07, 03:41:05,VALID,1000.53,VALID,0,VALID,95.6204,VALID,0.100563,VALID,23.2152,VALID,354,VALID,0.511328,
2009-11-07, 03:42:05,VALID,1000.55,VALID,0,VALID,95.6051,VALID,0.100563,VALID,23.1957,VALID,354,VALID,0.655078,
2009-11-07, 03:43:05,VALID,1000.62,VALID,0,VALID,95.6128,VALID,0,VALID,23.1957,VALID,354,VALID,0.496484,
2009-11-07, 03:44:05,VALID,1000.61,VALID,0,VALID,95.6051,VALID,0,VALID,23.1975,VALID,354,VALID,0.399219,
2009-11-07, 03:45:05,VALID,1000.64,VALID,0,VALID,95.6128,VALID,0,VALID,23.1763,VALID,354,VALID,0.601563,
2009-11-07, 03:46:05,VALID,1000.67,VALID,0,VALID,95.6128,VALID,0,VALID,23.1568,VALID,357,VALID,0.570703,
2009-11-07, 03:47:05,VALID,1000.73,VALID,0,VALID,95.6204,VALID,0,VALID,23.1568,VALID,359,VALID,0.561328,
2009-11-07, 03:48:05,VALID,1000.68,VALID,0,VALID,95.6204,VALID,0,VALID,23.2152,VALID,359,VALID,0.493359,
2009-11-07, 03:49:05,VALID,1000.71,VALID,0,VALID,95.6204,VALID,0,VALID,23.2347,VALID,359,VALID,0.375391,